Regional Weather Roundup
Issued by NWS Goodland, KS

Home | Current Version | Previous Version | Graphics & Text | Print | Product List | Glossary On
Versions: 1 2 3 4 5 6 7 8 9 10 11 12 13 14 15 16 17 18 19 20 21 22 23 24 25 26 27 28 29 30 31 32 33 34 35 36 37 38 39 40 41 42 43 44 45 46 47 48 49 50
000
ASUS43 KGLD 010459
RWRGLD

GOODLAND FORECAST AREA HOURLY WEATHER ROUNDUP
NATIONAL WEATHER SERVICE GOODLAND KS
1000 PM MST SAT FEB 28 2015

...OFFICIAL OBSERVATIONS...

CITY           SKY/WX    TMP DP  RH WIND       PRES   REMARKS
GOODLAND KS    CLOUDY    18  15  88 S7        30.14R
HILL CITY KS   CLOUDY    20  15  81 CALM      30.27R
IMPERIAL NEB     N/A     15  10  80 S6        30.17R
MCCOOK NEB     CLOUDY    24  15  68 S5        30.21F
AKRON CO       MOCLDY    18  15  88 SE6       30.03F
BURLINGTON CO  CLOUDY    19  12  74 S6        30.10R
LIMON CO       CLOUDY    14  10  84 CALM      30.00F
$$

...UNOFFICIAL OBSERVATIONS...

CITY           SKY/WX    TMP DP  RH WIND       PRES   REMARKS
COLBY KS       CLOUDY    19  19 100 SE3       30.19S
GOVE KS          N/A     20  32 100 MISG        N/A
LENORA KS        N/A     18  32 100 CALM        N/A
NORTON KS      CLOUDY    19  12  73 SE5       30.25R
SHARON SPRINGS   N/A     20  18  90 CALM        N/A
KIT CARSON CO    N/A     18  14  82 MISG        N/A
YUMA CO          N/A     19  13  77 CALM        N/A
$$



USA.gov is the U.S. government's official web portal to all federal, state and local government web resources and services.